Hourly Weather Julio de Castilhos

Today, 5 December, Saturday

Time Temperature Precipitation Wind Pressure Humidity
00:00 +16°C° 0 mm 5 mps 720 mmHg 80%
01:00 +15°C° 0 mm 6 mps 720 mmHg 83%
02:00 +15°C° 0 mm 6 mps 720 mmHg 86%
03:00 +15°C° 0 mm 6 mps 721 mmHg 85%
04:00 +15°C° 0 mm 6 mps 721 mmHg 84%
05:00 +15°C° 0 mm 6 mps 721 mmHg 83%
06:00 +16°C° 0 mm 6 mps 722 mmHg 81%
07:00 +16°C° 0 mm 6 mps 722 mmHg 78%
08:00 +17°C° 0 mm 6 mps 723 mmHg 76%
09:00 +19°C° 0 mm 6 mps 723 mmHg 74%
10:00 +20°C° 0 mm 6 mps 723 mmHg 71%
11:00 +20°C° 0 mm 6 mps 723 mmHg 69%
12:00 +21°C° 0 mm 5 mps 722 mmHg 67%
13:00 +22°C° 0 mm 5 mps 722 mmHg 65%
14:00 +23°C° 0 mm 5 mps 722 mmHg 63%
15:00 +21°C° 0 mm 5 mps 721 mmHg 67%
16:00 +20°C° 0 mm 5 mps 721 mmHg 71%
17:00 +19°C° 0 mm 5 mps 721 mmHg 75%
18:00 +17°C° 0 mm 5 mps 721 mmHg 78%
19:00 +15°C° 0 mm 5 mps 721 mmHg 81%
20:00 +14°C° 0 mm 5 mps 721 mmHg 85%
21:00 +14°C° 0 mm 5 mps 721 mmHg 83%
22:00 +14°C° 0 mm 5 mps 721 mmHg 82%
23:00 +14°C° 0 mm 5 mps 722 mmHg 81%

Tomorrow, 6 December, Sunday

Time Temperature Precipitation Wind Pressure Humidity
00:00 +14°C° 0 mm 5 mps 721 mmHg 83%
01:00 +13°C° 0 mm 5 mps 720 mmHg 84%
02:00 +13°C° 0 mm 5 mps 720 mmHg 86%
03:00 +13°C° 0 mm 5 mps 720 mmHg 86%
04:00 +13°C° 0 mm 5 mps 720 mmHg 86%
05:00 +13°C° 0 mm 5 mps 720 mmHg 87%
06:00 +14°C° 0 mm 5 mps 721 mmHg 83%
07:00 +16°C° 0 mm 5 mps 721 mmHg 79%
08:00 +17°C° 0 mm 5 mps 721 mmHg 76%
09:00 +19°C° 0 mm 5 mps 721 mmHg 74%
10:00 +20°C° 0 mm 5 mps 721 mmHg 72%
11:00 +20°C° 0 mm 5 mps 720 mmHg 70%
12:00 +20°C° 0 mm 5 mps 720 mmHg 71%
13:00 +20°C° 0 mm 5 mps 720 mmHg 73%
14:00 +20°C° 0 mm 4 mps 719 mmHg 75%
15:00 +19°C° 0 mm 5 mps 719 mmHg 77%
16:00 +19°C° 0 mm 5 mps 719 mmHg 78%
17:00 +17°C° 0 mm 5 mps 719 mmHg 80%
18:00 +17°C° 0 mm 5 mps 719 mmHg 83%
19:00 +16°C° 0 mm 5 mps 719 mmHg 85%
20:00 +15°C° 0 mm 5 mps 719 mmHg 87%
21:00 +15°C° 0 mm 5 mps 719 mmHg 89%
22:00 +15°C° 0 mm 4 mps 719 mmHg 92%
23:00 +14°C° 0 mm 4 mps 719 mmHg 94%

Day after tomorrow, 7 December, Monday

Time Temperature Precipitation Wind Pressure Humidity
00:00 +14°C° 0 mm 4 mps 718 mmHg 94%
01:00 +14°C° 0 mm 4 mps 718 mmHg 93%
02:00 +15°C° 0 mm 4 mps 718 mmHg 93%
03:00 +14°C° 0.2 mm 3 mps 718 mmHg 94%
04:00 +14°C° 0.2 mm 3 mps 718 mmHg 95%
05:00 +14°C° 0.2 mm 3 mps 718 mmHg 96%
06:00 +16°C° 0.1 mm 3 mps 718 mmHg 94%
07:00 +17°C° 0.1 mm 3 mps 719 mmHg 91%
08:00 +18°C° 0.1 mm 3 mps 719 mmHg 89%
09:00 +19°C° 0 mm 3 mps 719 mmHg 84%
10:00 +20°C° 0 mm 3 mps 718 mmHg 79%
11:00 +23°C° 0 mm 2 mps 718 mmHg 74%
12:00 +24°C° 0.1 mm 2 mps 718 mmHg 70%
13:00 +25°C° 0.1 mm 2 mps 718 mmHg 66%
14:00 +26°C° 0.1 mm 3 mps 717 mmHg 62%
15:00 +25°C° 0.1 mm 3 mps 717 mmHg 65%
16:00 +25°C° 0.1 mm 3 mps 717 mmHg 68%
17:00 +23°C° 0.1 mm 4 mps 717 mmHg 71%
18:00 +21°C° 0 mm 4 mps 717 mmHg 78%
19:00 +19°C° 0 mm 4 mps 717 mmHg 86%
20:00 +16°C° 0 mm 5 mps 717 mmHg 94%
21:00 +17°C° 0 mm 4 mps 717 mmHg 95%
22:00 +15°C° 0 mm 4 mps 717 mmHg 96%
23:00 +14°C° 0 mm 3 mps 717 mmHg 97%

8 December, Tuesday

Time Temperature Precipitation Wind Pressure Humidity
00:00 +14°C° 0 mm 3 mps 717 mmHg 97%
01:00 +14°C° 0 mm 3 mps 717 mmHg 97%
02:00 +14°C° 0 mm 3 mps 717 mmHg 98%
03:00 +14°C° 0 mm 3 mps 717 mmHg 98%
04:00 +14°C° 0 mm 3 mps 717 mmHg 98%
05:00 +15°C° 0 mm 2 mps 717 mmHg 98%
06:00 +17°C° 0 mm 2 mps 718 mmHg 90%
07:00 +19°C° 0 mm 2 mps 718 mmHg 83%
08:00 +23°C° 0 mm 2 mps 719 mmHg 76%
09:00 +25°C° 0 mm 2 mps 719 mmHg 66%
10:00 +27°C° 0 mm 1 mps 719 mmHg 57%
11:00 +29°C° 0 mm 1 mps 719 mmHg 48%
12:00 +29°C° 0 mm 1 mps 718 mmHg 46%
13:00 +29°C° 0 mm 1 mps 718 mmHg 44%
14:00 +30°C° 0 mm 1 mps 717 mmHg 42%
15:00 +29°C° 0 mm 2 mps 717 mmHg 48%
16:00 +28°C° 0 mm 3 mps 717 mmHg 54%
17:00 +27°C° 0 mm 3 mps 717 mmHg 60%
18:00 +25°C° 0 mm 4 mps 717 mmHg 68%
19:00 +22°C° 0 mm 4 mps 717 mmHg 76%
20:00 +20°C° 0 mm 4 mps 717 mmHg 84%
21:00 +19°C° 0 mm 4 mps 717 mmHg 87%
22:00 +18°C° 0 mm 4 mps 717 mmHg 90%
23:00 +18°C° 0 mm 3 mps 717 mmHg 92%

9 December, Wednesday

Time Temperature Precipitation Wind Pressure Humidity
00:00 +17°C° 0 mm 3 mps 717 mmHg 93%
01:00 +17°C° 0 mm 3 mps 717 mmHg 94%
02:00 +16°C° 0 mm 2 mps 717 mmHg 96%
03:00 +16°C° 0 mm 2 mps 717 mmHg 96%
04:00 +16°C° 0 mm 2 mps 717 mmHg 96%
05:00 +16°C° 0 mm 2 mps 717 mmHg 96%
06:00 +18°C° 0 mm 2 mps 718 mmHg 88%
07:00 +21°C° 0 mm 2 mps 719 mmHg 79%
08:00 +24°C° 0 mm 2 mps 719 mmHg 70%
09:00 +26°C° 0 mm 2 mps 719 mmHg 63%
10:00 +27°C° 0 mm 2 mps 719 mmHg 55%
11:00 +29°C° 0 mm 2 mps 719 mmHg 47%
12:00 +29°C° 0 mm 2 mps 718 mmHg 46%
13:00 +29°C° 0 mm 2 mps 718 mmHg 44%
14:00 +30°C° 0 mm 2 mps 717 mmHg 43%
15:00 +29°C° 0 mm 3 mps 717 mmHg 48%
16:00 +28°C° 0 mm 3 mps 717 mmHg 54%
17:00 +27°C° 0 mm 4 mps 717 mmHg 59%
18:00 +25°C° 0 mm 4 mps 717 mmHg 65%
19:00 +22°C° 0 mm 5 mps 717 mmHg 71%
20:00 +20°C° 0 mm 5 mps 717 mmHg 76%
21:00 +19°C° 0 mm 5 mps 717 mmHg 80%
22:00 +18°C° 0 mm 4 mps 717 mmHg 83%
23:00 +17°C° 0 mm 4 mps 717 mmHg 87%

10 December, Thursday

Time Temperature Precipitation Wind Pressure Humidity
00:00 +17°C° 0 mm 4 mps 716 mmHg 87%
01:00 +16°C° 0 mm 3 mps 716 mmHg 86%
02:00 +14°C° 0 mm 3 mps 715 mmHg 86%
03:00 +14°C° 0 mm 3 mps 715 mmHg 88%
04:00 +14°C° 0 mm 3 mps 715 mmHg 89%
05:00 +14°C° 0 mm 3 mps 715 mmHg 90%
06:00 +18°C° 0 mm 3 mps 716 mmHg 83%
07:00 +21°C° 0 mm 3 mps 716 mmHg 76%
08:00 +24°C° 0 mm 3 mps 716 mmHg 69%
09:00 +26°C° 0 mm 3 mps 716 mmHg 60%
10:00 +28°C° 0 mm 2 mps 715 mmHg 51%
11:00 +31°C° 0 mm 2 mps 715 mmHg 42%
12:00 +31°C° 0 mm 1 mps 715 mmHg 39%
13:00 +32°C° 0 mm 1 mps 714 mmHg 37%
14:00 +32°C° 0 mm 1 mps 713 mmHg 35%
15:00 +32°C° 0 mm 1 mps 713 mmHg 39%
16:00 +31°C° 0 mm 1 mps 713 mmHg 44%
17:00 +30°C° 0 mm 1 mps 712 mmHg 48%
18:00 +28°C° 0 mm 1 mps 712 mmHg 54%
19:00 +26°C° 0 mm 2 mps 712 mmHg 60%
20:00 +24°C° 0 mm 3 mps 712 mmHg 66%
21:00 +22°C° 0 mm 3 mps 712 mmHg 69%
22:00 +21°C° 0 mm 3 mps 713 mmHg 72%
23:00 +20°C° 0 mm 3 mps 713 mmHg 75%
Show more